Regional Weather Roundup
Issued by NWS

Home | Current Version | Previous Version | Graphics & Text | Print | Product List | Glossary On
Versions: 1 2 3 4 5 6 7 8 9 10 11 12 13 14 15 16 17 18 19 20 21 22 23 24 25 26 27 28 29 30 31 32 33 34 35 36 37 38 39 40 41 42 43 44 45 46 47 48 49 50
395
ASUS44 KMEG 081900
RWRTN
TENNESSEE HOURLY STATE WEATHER ROUNDUP
NATIONAL WEATHER SERVICE MEMPHIS TN
100 PM CST MON FEB 08 2016

TNZ002-004-019-021-049-052-054-088>092-082000-
WEST TENNESSEE

CITY           SKY/WX    TMP DP  RH WIND       PRES   REMARKS
MEMPHIS INTL   CLOUDY    43  21  41 NW21G28   29.95S
NWS MEMPHIS      N/A     42 N/A N/A MISG        N/A
JACKSON        CLOUDY    40  21  46 NW17      29.89F WCI  31
DYERSBURG      CLOUDY    39  18  41 NW15G21   29.91F WCI  31
UNION CITY     CLOUDY    37  19  48 NW20      29.85F WCI  27
PARIS          CLOUDY    34  19  55 W14       29.83F WCI  24
$$

TNZ008-025-027-028-033-062-065-066-082000-
NORTH MIDDLE TENNESSEE

CITY           SKY/WX    TMP DP  RH WIND       PRES   REMARKS
NASHVILLE      CLOUDY    41  24  51 W7        29.78F
CLARKSVILLE    CLOUDY    39  24  55 W14G26    29.78F WCI  31
COOKEVILLE     CLOUDY    41  25  52 W13       29.72F
CROSSVILLE     CLOUDY    39  23  52 W15G23    29.69F WCI  31
$$

TNZ061-075-076-078-094-096-097-082000-
SOUTH MIDDLE TENNESSEE

CITY           SKY/WX    TMP DP  RH WIND       PRES   REMARKS
TULLAHOMA      PTSUNNY   39  19  45 W12       29.78F WCI  32
WINCHESTER     CLOUDY    41  23  48 W12       29.79F
MCMINNVILLE    CLOUDY    39  25  56 W15       29.76S WCI  31
COLUMBIA       PTSUNNY   41  27  56 W9        29.79F
SHELBYVILLE    CLOUDY    43  25  49 W13       29.80F
$$

TNZ017-018-042-046-047-082000-
NORTHEAST TENNESSEE

CITY           SKY/WX    TMP DP  RH WIND       PRES   REMARKS
TRI CITIES     LGT RAIN  43  30  60 W9        29.62F
$$

TNZ012-013-036-069-073-074-082000-
CENTRAL EAST TENNESSEE

CITY           SKY/WX    TMP DP  RH WIND       PRES   REMARKS
KNOXVILLE      CLOUDY    47  24  40 SW17      29.67F
OAK RIDGE      CLOUDY    47  22  37 W13G20    29.69F
GATLINBURG     MOCLDY    43  27  52 W15       29.67S
$$

TNZ083-085-099-082000-
SOUTHEAST TENNESSEE

CITY           SKY/WX    TMP DP  RH WIND       PRES   REMARKS
CHATTANOOGA    PTSUNNY   49  20  31 W12G25    29.74F
$$

SKY/WX REPORTED AS FAIR MEANS FEW OR NO CLOUDS BELOW
12 THOUSAND FEET.





USA.gov is the U.S. government's official web portal to all federal, state and local government web resources and services.